When you browse on this site, cookies collect data to enhance your experience and personalize the content and advertising you see.
Visit our Privacy Policy to learn more. By continuing to use the site, you agree to this use of cookies and data.
  • In Netherlands
  • List of Countries
  • For 7 days
  • Water Temperature
  • Satellite Maps
  • Weather Map
  • Weather Widgets
  • user-avatar
    Login

    Hourly Weather Strizhi

    Today, 23 February, Saturday

    Time Temperature Precipitation Wind Pressure Humidity
    00:00 -5°C° 0.1 mm 4 mps 760 mmHg 71%
    01:00 -7°C° 0.2 mm 4 mps 760 mmHg 74%
    02:00 -7°C° 0.2 mm 4 mps 760 mmHg 77%
    03:00 -7°C° 0 mm 4 mps 760 mmHg 80%
    04:00 -7°C° 0.4 mm 4 mps 761 mmHg 83%
    05:00 -8°C° 0.4 mm 4 mps 761 mmHg 85%
    06:00 -8°C° 0.4 mm 4 mps 761 mmHg 87%
    07:00 -8°C° 0.3 mm 5 mps 762 mmHg 86%
    08:00 -7°C° 0.3 mm 5 mps 762 mmHg 86%
    09:00 -7°C° 0 mm 5 mps 763 mmHg 85%
    10:00 -7°C° 0.2 mm 5 mps 763 mmHg 85%
    11:00 -7°C° 0.2 mm 5 mps 764 mmHg 84%
    12:00 -6°C° 0.2 mm 5 mps 764 mmHg 84%
    13:00 -6°C° 0.6 mm 5 mps 764 mmHg 86%
    14:00 -6°C° 0.6 mm 5 mps 764 mmHg 88%
    15:00 -6°C° 0.6 mm 5 mps 764 mmHg 90%
    16:00 -6°C° 0.4 mm 5 mps 765 mmHg 91%
    17:00 -7°C° 0.4 mm 5 mps 765 mmHg 91%
    18:00 -7°C° 0.4 mm 5 mps 765 mmHg 91%
    19:00 -7°C° 0.1 mm 5 mps 765 mmHg 90%
    20:00 -7°C° 0.1 mm 5 mps 765 mmHg 90%
    21:00 -7°C° 0.1 mm 5 mps 766 mmHg 90%
    22:00 -7°C° 0 mm 4 mps 766 mmHg 90%
    23:00 -8°C° 0 mm 4 mps 766 mmHg 89%

    Tomorrow, 24 February, Sunday

    Time Temperature Precipitation Wind Pressure Humidity
    00:00 -8°C° 0 mm 4 mps 766 mmHg 89%
    01:00 -8°C° 0 mm 4 mps 766 mmHg 89%
    02:00 -8°C° 0 mm 4 mps 766 mmHg 89%
    03:00 -8°C° 0 mm 4 mps 766 mmHg 88%
    04:00 -9°C° 0 mm 4 mps 766 mmHg 88%
    05:00 -9°C° 0 mm 4 mps 766 mmHg 88%
    06:00 -10°C° 0 mm 4 mps 766 mmHg 88%
    07:00 -10°C° 0 mm 4 mps 767 mmHg 87%
    08:00 -9°C° 0 mm 3 mps 767 mmHg 87%
    09:00 -9°C° 0 mm 3 mps 767 mmHg 86%
    10:00 -8°C° 0 mm 3 mps 767 mmHg 83%
    11:00 -7°C° 0 mm 3 mps 767 mmHg 81%
    12:00 -6°C° 0 mm 3 mps 767 mmHg 78%
    13:00 -6°C° 0 mm 3 mps 767 mmHg 76%
    14:00 -5°C° 0 mm 3 mps 767 mmHg 75%
    15:00 -5°C° 0 mm 3 mps 767 mmHg 73%
    16:00 -5°C° 0 mm 2 mps 767 mmHg 77%
    17:00 -6°C° 0 mm 2 mps 767 mmHg 81%
    18:00 -7°C° 0 mm 2 mps 767 mmHg 84%
    19:00 -8°C° 0 mm 2 mps 767 mmHg 86%
    20:00 -7°C° 0 mm 1 mps 767 mmHg 87%
    21:00 -8°C° 0 mm 1 mps 767 mmHg 89%
    22:00 -8°C° 0 mm 1 mps 767 mmHg 88%
    23:00 -8°C° 0 mm 1 mps 767 mmHg 88%

    Day after tomorrow, 25 February, Monday

    Time Temperature Precipitation Wind Pressure Humidity
    00:00 -9°C° 0 mm 2 mps 767 mmHg 88%
    01:00 -9°C° 0 mm 2 mps 767 mmHg 87%
    02:00 -10°C° 0 mm 2 mps 767 mmHg 86%
    03:00 -10°C° 0 mm 2 mps 766 mmHg 85%
    04:00 -10°C° 0 mm 2 mps 766 mmHg 84%
    05:00 -10°C° 0 mm 3 mps 766 mmHg 84%
    06:00 -10°C° 0 mm 3 mps 765 mmHg 83%
    07:00 -10°C° 0 mm 4 mps 765 mmHg 82%
    08:00 -9°C° 0 mm 4 mps 765 mmHg 80%
    09:00 -8°C° 0 mm 5 mps 764 mmHg 78%
    10:00 -7°C° 0 mm 5 mps 764 mmHg 78%
    11:00 -6°C° 0 mm 6 mps 763 mmHg 77%
    12:00 -4°C° 0 mm 6 mps 763 mmHg 77%
    13:00 -4°C° 0 mm 6 mps 762 mmHg 78%
    14:00 -3°C° 0 mm 6 mps 761 mmHg 79%
    15:00 -3°C° 0 mm 7 mps 760 mmHg 80%
    16:00 -3°C° 0 mm 6 mps 760 mmHg 81%
    17:00 -4°C° 0 mm 6 mps 759 mmHg 82%
    18:00 -4°C° 0 mm 6 mps 758 mmHg 83%
    19:00 -4°C° 0.2 mm 7 mps 758 mmHg 85%
    20:00 -4°C° 0.2 mm 7 mps 757 mmHg 87%
    21:00 -4°C° 0.2 mm 7 mps 757 mmHg 88%
    22:00 -4°C° 0.5 mm 7 mps 756 mmHg 89%
    23:00 -4°C° 0.5 mm 7 mps 755 mmHg 90%

    26 February, Tuesday

    Time Temperature Precipitation Wind Pressure Humidity
    00:00 -3°C° 0.5 mm 7 mps 755 mmHg 90%
    01:00 -3°C° 0.2 mm 7 mps 754 mmHg 90%
    02:00 -3°C° 0.2 mm 7 mps 753 mmHg 90%
    03:00 -3°C° 0.2 mm 7 mps 753 mmHg 90%
    04:00 -3°C° 0.1 mm 6 mps 752 mmHg 89%
    05:00 -3°C° 0.1 mm 6 mps 752 mmHg 89%
    06:00 -3°C° 0.1 mm 6 mps 751 mmHg 89%
    07:00 -3°C° 0.1 mm 6 mps 751 mmHg 89%
    08:00 -3°C° 0.1 mm 6 mps 751 mmHg 88%
    09:00 -3°C° 0.1 mm 6 mps 751 mmHg 88%
    10:00 -3°C° 0.1 mm 6 mps 750 mmHg 88%
    11:00 -2°C° 0.1 mm 6 mps 750 mmHg 88%
    12:00 -2°C° 0.1 mm 6 mps 749 mmHg 88%
    13:00 -2°C° 0.2 mm 6 mps 749 mmHg 87%
    14:00 -1°C° 0.2 mm 6 mps 749 mmHg 85%
    15:00 -1°C° 0.2 mm 6 mps 748 mmHg 84%
    16:00 -2°C° 0.1 mm 6 mps 748 mmHg 85%
    17:00 -1°C° 0.1 mm 5 mps 748 mmHg 86%
    18:00 -1°C° 0.1 mm 4 mps 747 mmHg 87%
    19:00 -2°C° 0 mm 4 mps 747 mmHg 89%
    20:00 -2°C° 0 mm 4 mps 747 mmHg 91%
    21:00 -2°C° 0 mm 4 mps 747 mmHg 92%
    22:00 -2°C° 0.1 mm 4 mps 747 mmHg 93%
    23:00 -2°C° 0.1 mm 3 mps 747 mmHg 94%

    27 February, Wednesday

    Time Temperature Precipitation Wind Pressure Humidity
    00:00 -2°C° 0.1 mm 3 mps 747 mmHg 94%
    01:00 -2°C° 0 mm 3 mps 747 mmHg 95%
    02:00 -2°C° 0 mm 3 mps 747 mmHg 95%
    03:00 -4°C° 0 mm 3 mps 747 mmHg 95%
    04:00 -3°C° 0 mm 2 mps 747 mmHg 95%
    05:00 -3°C° 0 mm 2 mps 748 mmHg 95%
    06:00 -4°C° 0 mm 2 mps 748 mmHg 95%
    07:00 -3°C° 0 mm 2 mps 748 mmHg 92%
    08:00 -3°C° 0 mm 2 mps 748 mmHg 90%
    09:00 -2°C° 0 mm 3 mps 749 mmHg 88%
    10:00 -2°C° 0 mm 3 mps 749 mmHg 86%
    11:00 -1°C° 0 mm 3 mps 749 mmHg 84%
    12:00 0°C° 0 mm 3 mps 749 mmHg 81%
    13:00 0°C° 0.1 mm 3 mps 749 mmHg 81%
    14:00 -1°C° 0.1 mm 4 mps 749 mmHg 81%
    15:00 -1°C° 0.1 mm 4 mps 749 mmHg 81%
    16:00 0°C° 0 mm 3 mps 749 mmHg 83%
    17:00 -1°C° 0 mm 3 mps 749 mmHg 84%
    18:00 -1°C° 0 mm 2 mps 750 mmHg 86%
    19:00 -1°C° 0 mm 3 mps 750 mmHg 88%
    20:00 -1°C° 0 mm 3 mps 750 mmHg 89%
    21:00 -2°C° 0 mm 4 mps 750 mmHg 90%
    22:00 -3°C° 0 mm 4 mps 750 mmHg 89%
    23:00 -3°C° 0 mm 4 mps 750 mmHg 89%

    28 February, Thursday

    Time Temperature Precipitation Wind Pressure Humidity
    00:00 -3°C° 0 mm 4 mps 750 mmHg 88%
    01:00 -3°C° 0 mm 4 mps 749 mmHg 87%
    02:00 -3°C° 0 mm 4 mps 749 mmHg 86%
    03:00 -5°C° 0 mm 5 mps 749 mmHg 85%
    04:00 -4°C° 0 mm 4 mps 749 mmHg 83%
    05:00 -4°C° 0 mm 4 mps 748 mmHg 81%
    06:00 -4°C° 0 mm 4 mps 748 mmHg 80%
    07:00 -5°C° 0 mm 5 mps 748 mmHg 77%
    08:00 -4°C° 0 mm 6 mps 748 mmHg 74%
    09:00 -4°C° 0 mm 6 mps 748 mmHg 71%
    10:00 -3°C° 0 mm 6 mps 748 mmHg 72%
    11:00 -3°C° 0 mm 6 mps 748 mmHg 72%
    12:00 -2°C° 0 mm 6 mps 748 mmHg 72%
    13:00 -2°C° 0.1 mm 6 mps 747 mmHg 74%
    14:00 -2°C° 0.1 mm 6 mps 747 mmHg 76%
    15:00 -1°C° 0.1 mm 6 mps 747 mmHg 78%
    16:00 -2°C° 0 mm 6 mps 747 mmHg 80%
    17:00 -1°C° 0 mm 5 mps 747 mmHg 82%
    18:00 -1°C° 0 mm 4 mps 747 mmHg 85%
    19:00 -2°C° 0 mm 4 mps 747 mmHg 87%
    20:00 -2°C° 0 mm 4 mps 747 mmHg 89%
    21:00 -2°C° 0 mm 4 mps 746 mmHg 91%
    22:00 -2°C° 0 mm 4 mps 746 mmHg 92%
    23:00 -3°C° 0 mm 4 mps 746 mmHg 93%
    Show more